71P/Clark (2011)

Japanese version
Home page
Updated on February 4, 2013

---------------------------------------------------------------------

* Profile

* Pictures

* Orbital Elements

Epoch 2011 Dec. 25.0 TT = JDT 2455920.5
T 2011 Dec. 15.91364 TT                                 MPC
q   1.5674922            (2000.0)            P               Q
n   0.17836516     Peri.  208.82770     -0.03298003     +0.98930445
a   3.1255710      Node    59.60802     -0.88248898     +0.03791224
e   0.4984941      Incl.    9.48118     -0.46917535     -0.14085230
P   5.53
From 476 observations 2000 Feb. 4-2011 Feb. 12, mean residual 0".7.
     Nongravitational parameters A1 = +1.58, A2 = -0.1861.

* Finding Charts

* Magnitudes Graph

        m1 = 7.2 + 5 log d + 20.0 log r(t - 30)

---------------------------------------------------------------------

The orbital elements are published on M.P.E.C. 2011-D06.
The charts are made with StellaNavigator Ver.8 (AstroArts).
The magnitudes graphs are made with Comet for Windows.

---------------------------------------------------------------------

Copyright(C) Seiichi Yoshida (comet@aerith.net). All rights reserved.